This demonstration page uses our WeatherBlox Daily Observations layout. Learn more.

Left ArrowRight Arrow

34.02893, -84.19858

Hourly Observations for April 23, 2022

Temp ( °F °C ) Dew Point ( °F °C ) Humidity (%) Winds ( mph kmh ) Pressure ( in mb ) Visibility ( mi km ) Precip ( " mm )
12:53 am 00:53 Clear 62 16.7 55 12.8 78 78 Calm 30.27 1025 10 16 0.00 0.00
1:53 am 01:53 Clear 59 15 55 12.8 87 87 Calm 30.26 1025 10 16 0.00 0.00
2:53 am 02:53 Clear 61 16.1 55 12.8 81 81 SSE 3 6 30.24 1024 10 16 0.00 0.00
3:53 am 03:53 Clear 61 16.1 53 11.7 75 75 SSE 3 6 30.24 1024 10 16 0.00 0.00
4:53 am 04:53 Clear 55 12.8 52 11.1 90 90 Calm 30.25 1024 10 16 0.00 0.00
5:53 am 05:53 Clear 54 12.2 52 11.1 93 93 Calm 30.25 1024 10 16 0.00 0.00
6:53 am 06:53 Clear 53 11.7 52 11.1 96 96 Calm 30.27 1025 9 14 0.00 0.00
7:53 am 07:53 Sunny 56 13.3 55 12.8 97 97 Calm 30.28 1025 9 14 0.00 0.00
8:53 am 08:53 Sunny 64 17.8 56 13.3 75 75 S 5 7 30.29 1026 10 16 0.00 0.00
9:53 am 09:53 Sunny 68 20 55 12.8 63 63 VRB 3 6 30.29 1026 10 16 0.00 0.00
10:53 am 10:53 Sunny 72 22.2 54 12.2 53 53 SSE 8 13 30.28 1025 10 16 0.00 0.00
11:53 am 11:53 Sunny 74 23.3 56 13.3 54 54 SSE 10 17 30.27 1025 10 16 0.00 0.00
12:53 pm 12:53 Sunny 77 25 56 13.3 48 48 SSE 7 11 30.25 1024 10 16 0.00 0.00
1:53 pm 13:53 Mostly Sunny 78 25.6 55 12.8 45 45 SSE 9 15 30.24 1024 10 16 0.00 0.00
2:53 pm 14:53 Mostly Sunny 77 25 55 12.8 47 47 SE 10 17 30.22 1023 10 16 0.00 0.00
3:53 pm 15:53 Mostly Cloudy 79 26.1 56 13.3 45 45 SE 8 13 30.20 1023 10 16 0.00 0.00
4:53 pm 16:53 Partly Cloudy 78 25.6 55 12.8 45 45 VRB 5 7 30.19 1022 10 16 0.00 0.00
5:53 pm 17:53 Mostly Cloudy 77 25 54 12.2 45 45 SE 8 13 30.19 1022 10 16 0.00 0.00
6:53 pm 18:53 Partly Cloudy 76 24.4 54 12.2 47 47 SSE 8 13 30.17 1022 10 16 0.00 0.00
7:53 pm 19:53 Sunny 74 23.3 53 11.7 48 48 SSE 7 11 30.16 1022 10 16 0.00 0.00
8:53 pm 20:53 Clear 69 20.6 55 12.8 61 61 Calm 30.16 1021 10 16 0.00 0.00
9:53 pm 21:53 Clear 67 19.4 56 13.3 68 68 Calm 30.17 1022 10 16 0.00 0.00
10:53 pm 22:53 Clear 66 18.9 56 13.3 70 70 ESE 3 6 30.17 1022 10 16 0.00 0.00
11:53 pm 23:53 Clear 65 18.3 57 13.9 76 76 VRB 3 6 30.16 1022 10 16 0.00 0.00

Powered by AerisWeather